Location: Poughquag
(41.6090°N, 73.6820°W)
Time: 23:41:03
(UTC-05:00)

Explorer 7 - Visible Passes

Search period start: 28 November 2023 00:00
Search period end: 08 December 2023 00:00
Orbit: 472 x 641 km, 50.3° (Epoch: 28 November)

Date Brightness Start Highest point End Pass type
(mag) Time Alt. Az. Time Alt. Az. Time Alt. Az.
28 Nov 6.9 18:25:51 10° WSW 18:29:22 57° NW 18:29:22 57° NW visible
29 Nov 7.2 18:22:37 10° W 18:26:09 43° NNW 18:26:16 43° NNW visible
30 Nov 7.6 18:19:26 10° W 18:22:50 34° NNW 18:23:06 34° N visible
01 Dec 7.8 18:16:16 10° W 18:19:31 29° NNW 18:19:52 28° N visible
02 Dec 8.0 18:13:05 10° WNW 18:16:11 25° NNW 18:16:34 25° N visible
03 Dec 8.1 18:09:53 10° WNW 18:12:53 23° N 18:13:14 22° N visible
04 Dec 8.2 18:06:37 10° WNW 18:09:32 21° N 18:09:52 21° N visible
05 Dec 8.2 18:03:18 10° NW 18:06:10 21° N 18:06:29 21° N visible
06 Dec 8.2 17:59:55 10° NW 18:02:47 21° N 18:03:05 21° N visible
07 Dec 8.1 17:56:26 10° NW 17:59:22 22° N 17:59:41 22° NNE visible
